GFSMW_500_spd_096.txt.gz
Wind_Speed
19 19 18 18 18 20 17 15 9 12 14 12 10 12 10 12 16 26 43 46 38 36 34 33 30 33 38 34 37 45 44 40 43 43 36 33 32 22 20 14 12 12 13
17 18 18 17 16 16 16 14 10 11 12 13 9 11 4 7 18 19 29 48 43 34 35 34 28 29 34 36 27 35 40 38 41 31 34 32 20 15 14 13 11 13 15
16 17 16 17 13 14 13 13 11 11 11 11 8 6 15 8 5 15 25 36 41 38 40 37 35 33 34 29 30 35 36 22 23 30 25 16 14 13 15 12 13 16 18
21 16 17 18 11 10 11 11 11 11 10 12 13 7 5 13 6 9 18 29 39 35 37 33 36 29 28 29 29 27 22 18 18 16 11 13 15 13 13 15 17 18 20
20 17 17 18 11 9 8 8 10 10 12 10 10 9 7 6 7 6 6 12 24 25 28 33 36 30 25 22 17 15 14 15 11 10 16 15 14 13 16 18 21 21 24
17 18 17 15 12 8 8 5 7 8 7 9 8 9 6 9 9 8 7 7 8 15 29 31 27 29 21 17 14 11 14 12 14 13 14 13 12 12 15 18 22 26 28
17 20 15 13 13 11 8 6 6 7 8 6 5 5 2 4 8 11 13 12 9 9 11 12 14 14 14 13 13 14 14 15 14 13 13 13 14 16 19 23 25 29 32
17 18 13 13 13 11 8 8 6 7 7 6 4 2 3 2 5 7 6 7 12 13 13 14 8 11 16 15 15 16 16 15 15 13 14 15 17 18 21 28 34 33 40
19 18 13 11 9 9 6 7 8 8 9 8 8 7 4 5 6 7 9 7 8 13 16 17 19 18 18 15 17 16 16 16 18 17 17 20 20 23 27 33 38 38 34
21 18 14 13 9 8 6 3 4 8 11 13 12 11 10 8 7 7 7 7 9 9 10 12 12 13 13 13 16 15 13 17 18 18 20 24 26 29 28 30 30 34 38
19 18 16 14 12 10 11 9 9 9 10 13 14 14 12 9 9 9 10 10 10 10 10 10 10 11 13 16 14 13 15 17 21 23 25 28 30 33 33 35 38 39 41
22 22 20 17 16 14 13 11 11 11 12 13 12 11 15 12 10 10 10 10 10 10 11 12 14 15 16 18 19 20 21 21 24 26 29 30 33 36 38 40 41 44 45
24 25 25 21 19 18 15 15 12 12 10 13 12 10 15 16 16 15 14 13 13 14 16 18 18 21 22 24 25 26 24 28 30 30 34 36 38 40 42 44 46 49 51
25 25 27 26 24 23 21 18 15 15 13 12 15 13 14 19 20 19 19 20 20 19 21 21 21 22 23 23 24 28 29 31 33 35 33 39 42 43 45 47 51 53 55
23 24 28 29 30 26 23 21 18 19 19 15 16 17 17 17 17 18 20 21 21 22 24 26 25 26 25 25 27 30 33 35 37 39 41 43 45 48 50 53 56 57 59
28 30 31 34 31 30 27 25 25 23 21 18 17 19 20 20 20 21 22 24 24 26 27 27 26 29 30 30 32 34 36 38 41 44 47 48 51 53 55 57 60 62 63
35 31 31 35 36 32 30 31 28 28 23 23 21 20 22 20 22 24 24 24 25 25 26 28 31 32 33 32 33 36 39 42 45 47 50 52 55 58 60 60 57 59 60
35 38 38 38 37 39 39 35 34 30 27 27 26 26 25 23 23 24 25 25 27 30 30 32 33 34 35 34 35 38 42 46 49 51 54 58 60 60 58 57 58 60 63
35 40 40 40 39 36 37 36 43 40 34 32 33 32 29 29 28 27 29 31 30 32 34 36 36 36 36 37 39 43 49 47 49 53 56 58 58 59 59 62 62 66 70
32 37 41 40 40 36 39 37 39 39 39 38 37 37 39 40 33 32 32 35 36 37 38 39 40 40 43 44 43 49 46 50 51 54 55 56 58 61 62 63 68 73 77
36 36 35 43 42 40 43 43 45 44 40 40 40 41 43 43 45 40 35 41 46 42 42 41 42 45 48 49 50 49 49 48 54 57 56 58 60 61 64 68 73 78 77
41 39 43 44 44 47 47 47 47 46 47 46 48 47 47 47 41 44 45 46 48 50 45 45 45 47 50 51 55 59 62 70 67 63 64 67 68 71 78 80 77 73 71
44 43 43 44 43 46 52 52 53 51 50 49 50 51 52 49 50 46 50 51 57 58 52 51 52 54 54 61 66 68 66 72 74 70 73 77 78 82 79 75 70 67 69
41 41 42 47 50 54 55 55 55 55 54 52 52 56 56 54 54 53 56 56 51 54 54 58 61 62 66 71 72 73 72 73 76 75 79 80 79 77 70 67 67 69 71
35 37 40 42 47 52 54 56 56 54 53 53 52 53 56 57 56 58 59 56 64 58 60 67 71 70 70 74 76 67 70 72 74 77 81 78 73 70 67 69 70 72 75
34 33 33 38 40 44 48 49 53 56 54 53 54 54 56 59 60 61 60 62 62 64 70 76 76 75 72 68 69 70 71 75 74 69 64 63 67 67 68 70 73 77 81

GFSMW_500_spd_102.txt.gz
Wind_Speed
21 13 13 17 16 18 20 22 22 19 13 10 12 12 8 5 5 4 13 45 46 43 43 27 28 32 28 24 22 26 29 35 34 33 33 35 35 35 34 32 26 28 25
22 15 10 15 16 17 19 20 20 18 13 12 11 13 9 5 3 10 13 37 47 53 47 33 30 26 25 19 20 22 24 28 31 37 37 37 37 37 32 30 27 27 25
24 15 13 13 17 16 18 17 17 17 13 12 11 11 9 6 3 13 23 24 42 48 47 30 28 25 25 19 19 19 22 25 29 34 29 29 25 29 25 26 26 26 23
23 17 12 16 18 15 16 15 15 15 12 10 13 12 11 3 3 15 22 33 36 44 47 36 30 30 30 26 24 23 23 26 26 29 29 31 31 32 27 24 26 22 21
27 17 11 16 20 14 13 13 13 13 9 9 11 12 14 7 5 8 20 32 36 43 45 37 35 42 34 30 29 29 26 27 27 27 34 36 32 25 24 26 26 23 25
24 19 12 17 16 14 11 13 12 12 8 6 6 7 11 12 9 9 13 14 23 24 30 40 34 29 33 38 34 33 25 26 28 29 33 28 25 24 27 26 26 25 27
21 17 14 15 20 16 10 12 13 13 11 5 3 4 8 11 13 12 13 13 16 26 25 24 28 31 26 33 31 34 33 34 29 30 28 27 25 24 26 26 28 26 27
22 15 14 22 20 15 12 10 12 12 13 8 6 4 5 7 11 15 16 17 17 16 17 22 25 30 30 31 32 34 40 34 30 26 26 28 28 28 29 30 30 31 29
23 16 18 23 20 15 14 13 12 11 8 6 8 9 8 8 9 9 11 13 19 19 22 22 17 17 22 22 21 25 27 23 26 28 29 30 30 31 31 30 29 32 30
24 25 21 22 19 17 16 16 15 14 10 7 6 9 14 13 13 12 11 11 11 18 23 17 17 18 19 19 19 18 22 26 27 31 28 28 30 31 31 30 32 34 36
37 34 26 25 25 23 20 19 19 18 13 10 7 5 9 14 14 12 10 9 10 15 17 17 16 16 16 16 15 19 19 21 23 24 25 28 31 32 32 33 32 33 35
38 33 28 27 28 26 24 23 22 22 17 14 9 6 5 12 11 11 11 10 11 12 14 15 15 16 17 17 20 21 22 24 26 29 29 28 31 32 32 33 35 37 38
32 32 36 34 33 30 28 26 26 26 21 17 13 10 7 10 14 12 11 11 14 16 16 16 17 18 19 19 20 22 24 26 27 29 32 30 31 33 34 37 40 39 39
44 35 31 35 36 32 31 29 29 27 24 19 16 13 12 11 15 17 15 14 15 17 19 20 20 22 23 23 25 27 29 31 32 32 33 35 37 38 39 40 40 40 40
43 42 38 39 40 34 31 29 29 26 25 24 20 18 15 15 14 18 21 21 21 21 22 23 24 25 25 25 28 30 30 31 31 32 34 36 37 38 40 41 42 43 44
44 37 33 32 26 34 32 31 31 29 27 23 22 23 18 18 19 18 18 20 22 24 25 25 26 26 26 28 30 32 33 33 33 34 36 37 39 40 41 41 39 41 47
29 23 23 18 24 27 22 29 33 35 32 25 22 23 21 20 22 20 19 19 21 21 21 21 23 24 24 25 27 30 32 33 34 36 38 39 40 40 39 38 42 40 45
29 22 24 25 25 27 29 28 31 35 32 29 27 25 24 25 24 25 24 24 22 21 22 22 20 20 21 23 26 28 31 32 35 36 38 39 41 42 47 50 51 49 51
29 31 31 32 35 38 31 32 35 32 28 27 27 30 31 31 30 29 27 27 27 25 25 25 25 26 26 26 27 30 33 35 37 39 42 44 46 44 51 49 50 63 60
33 32 35 38 37 40 40 35 33 31 34 32 30 33 37 35 35 35 34 33 33 32 32 28 29 35 35 35 34 35 37 43 45 47 48 51 52 54 53 51 55 59 64
37 37 36 39 43 38 37 35 34 35 34 38 39 38 38 44 42 45 40 40 38 38 39 38 39 36 40 41 41 43 47 47 47 51 55 60 61 54 54 69 67 69 73
32 34 35 37 39 39 42 43 42 39 38 37 39 40 44 49 46 44 44 43 44 43 42 40 40 41 42 45 47 47 49 53 51 52 59 60 65 71 64 68 76 76 78
34 35 36 38 41 43 44 45 46 45 45 45 44 44 46 51 50 50 41 41 43 45 44 41 45 49 49 50 48 53 60 51 55 58 67 63 77 80 75 62 69 72 72
35 38 41 43 43 44 46 48 49 50 50 52 54 54 54 53 54 54 54 51 51 51 52 51 49 50 51 57 64 53 60 66 60 63 69 77 72 64 66 76 67 60 62
36 39 42 43 44 46 48 52 55 57 59 60 61 63 63 63 61 60 59 57 56 55 41 55 56 56 53 63 56 57 56 59 64 75 68 58 55 55 63 63 54 52 58
33 34 37 40 40 39 37 47 54 59 63 63 65 66 68 68 66 60 60 63 58 57 62 59 59 61 53 56 57 61 68 64 68 69 60 59 52 49 48 53 57 60 65

GFSMW_500_spd_105.txt.gz
Wind_Speed
39 28 21 17 21 21 22 20 17 17 20 19 18 18 18 17 13 7 16 13 30 42 46 48 38 26 30 31 31 28 26 29 31 28 27 27 29 30 31 34 35 34 35
32 36 27 17 21 24 21 20 16 15 18 18 20 18 18 17 12 15 11 28 31 48 45 39 23 28 29 33 33 26 24 24 28 31 35 35 33 33 35 36 38 41 38
32 27 25 21 21 23 21 19 15 15 16 16 20 17 18 16 14 14 19 23 42 50 49 36 26 25 27 26 23 24 22 25 29 29 32 33 34 35 32 34 34 35 32
33 27 23 21 22 22 19 17 14 14 15 15 19 16 19 18 16 16 26 18 40 46 47 43 31 29 27 28 27 23 23 24 25 23 23 27 30 33 32 35 35 35 34
40 35 28 26 25 23 19 16 14 15 13 13 17 15 18 18 13 15 19 23 21 45 42 46 35 34 37 38 32 27 23 25 25 22 25 25 25 27 38 40 41 37 35
45 38 32 29 29 22 18 14 14 16 13 12 14 14 15 18 13 15 16 27 21 36 37 41 38 35 37 33 32 32 30 28 29 28 29 27 31 36 39 40 35 34 35
43 26 28 27 30 22 17 13 15 16 14 14 14 12 11 15 16 11 10 21 24 33 31 27 28 32 30 26 34 39 35 32 28 27 30 32 35 37 36 32 31 31 31
38 25 30 22 26 20 15 15 16 14 12 12 13 13 9 13 16 14 9 15 26 25 26 29 29 30 33 32 27 33 35 32 28 34 36 38 36 35 34 32 31 31 32
36 32 30 28 27 19 17 18 19 15 13 10 9 11 12 10 11 15 20 18 15 21 26 21 24 19 23 23 22 28 35 37 38 40 41 38 34 34 34 33 33 32 32
34 37 35 33 28 20 19 19 20 18 16 14 12 11 14 14 13 13 13 16 21 21 26 21 18 20 20 21 24 30 35 34 41 38 33 30 29 31 32 34 35 33 33
37 39 39 33 30 24 24 23 22 20 19 17 14 12 12 16 16 14 13 12 14 18 25 20 21 24 18 18 19 17 18 18 22 20 20 25 32 34 32 32 32 33 36
40 42 41 36 32 28 29 27 24 22 23 21 17 14 13 14 17 16 13 12 11 12 15 23 24 22 18 19 19 20 20 22 24 24 27 26 30 32 32 33 36 37 39
41 43 44 39 36 32 32 31 29 28 27 24 21 19 16 14 17 21 17 14 12 11 12 15 21 20 18 19 20 21 21 22 24 25 28 30 33 34 33 35 39 40 39
47 47 44 43 37 35 35 36 34 32 31 29 24 21 20 16 17 22 22 21 19 17 17 17 18 19 21 22 22 23 24 25 26 29 31 32 34 36 38 40 40 42 43
44 47 44 44 43 42 39 37 37 37 35 32 27 25 23 20 17 17 23 23 22 22 21 21 21 21 20 22 24 26 29 30 30 33 35 37 37 37 39 39 41 42 43
31 51 48 42 42 42 37 38 39 37 34 33 31 31 27 25 23 19 18 21 25 25 24 24 25 25 26 27 30 32 33 33 34 35 36 37 37 37 38 40 42 43 45
19 50 47 44 40 38 41 40 40 37 35 30 29 29 28 29 27 26 23 21 22 24 24 26 27 27 29 32 33 33 33 34 34 34 35 35 35 37 38 40 42 44 45
23 24 37 42 41 33 29 34 32 36 29 30 33 31 28 28 31 29 26 26 25 23 23 24 25 26 26 27 28 29 29 29 30 30 30 31 33 34 36 39 42 47 49
30 25 20 33 33 27 25 28 32 25 26 28 31 33 37 32 32 31 30 28 28 28 28 29 29 29 27 26 28 30 30 31 32 34 37 37 39 41 42 45 46 50 51
30 29 26 26 28 32 38 32 32 34 36 36 36 33 27 31 36 35 33 33 34 34 34 33 33 33 33 30 30 35 38 39 40 39 40 44 46 48 51 52 53 52 60
27 27 34 35 35 33 34 37 37 41 42 43 41 39 37 39 40 40 43 39 40 41 40 39 39 40 42 39 37 40 39 39 41 46 47 48 51 56 53 51 57 71 71
30 27 29 32 35 39 37 37 39 40 35 41 42 41 41 41 44 43 39 43 47 45 45 47 46 45 41 43 46 46 44 45 47 48 50 54 67 66 59 54 62 68 80
27 27 28 31 32 35 39 39 39 38 39 40 41 43 43 42 44 46 49 45 47 48 45 38 46 45 47 47 47 50 53 51 49 60 49 63 64 70 71 64 69 75 76
32 32 32 34 34 36 36 39 41 43 43 43 44 44 45 47 48 49 52 53 53 54 55 50 50 41 50 45 50 52 44 59 55 59 61 55 63 67 72 68 67 68 71
32 33 36 39 41 43 44 45 46 47 48 49 51 53 53 55 57 58 59 59 59 61 59 58 59 57 55 51 57 55 48 52 61 61 52 63 62 59 67 70 65 60 61
30 31 33 36 39 40 42 45 47 49 53 54 56 57 58 61 64 65 65 66 67 64 63 64 64 62 62 60 62 56 53 58 61 57 55 60 62 68 64 59 59 58 57

GFSMW_500_spd_108.txt.gz
Wind_Speed
33 28 25 26 29 32 23 27 22 23 23 18 19 21 21 20 21 21 22 23 19 32 40 44 46 44 42 39 36 34 31 33 32 31 29 29 28 27 26 25 28 30 30
36 28 22 29 31 38 26 33 24 24 21 18 18 21 21 21 20 20 17 24 17 20 33 43 48 49 38 39 39 37 33 33 34 31 29 30 29 30 29 31 31 33 33
38 27 24 28 26 35 30 32 25 23 19 18 17 20 22 20 19 19 19 22 19 18 30 36 45 51 40 32 36 35 33 33 31 31 30 29 30 32 34 35 35 34 34
37 30 25 27 25 31 27 31 25 22 18 17 16 19 21 19 19 17 21 22 24 22 28 31 46 51 30 34 34 32 31 34 31 29 28 30 33 34 34 34 33 33 36
38 34 29 27 24 27 29 29 25 23 19 15 16 18 19 18 19 16 18 22 21 25 34 39 43 35 32 35 31 33 35 31 31 32 31 31 30 29 28 28 30 36 39
38 32 35 28 27 34 32 28 27 23 19 14 16 17 17 18 18 18 17 18 18 25 38 39 48 40 34 31 31 35 34 33 32 29 28 28 28 30 29 30 36 37 37
39 33 31 31 30 34 33 30 29 22 17 15 16 18 16 17 15 17 16 15 19 16 29 39 44 38 25 27 30 35 36 32 30 28 27 30 31 30 31 33 37 36 34
37 31 33 32 36 33 32 32 28 22 16 14 16 15 15 15 13 15 15 11 12 15 20 30 29 26 32 30 28 39 34 36 34 31 29 25 27 28 34 36 38 34 32
32 28 34 32 31 35 32 32 29 22 16 14 15 14 12 14 12 11 15 12 8 10 16 22 22 24 24 33 32 32 32 28 29 34 33 29 33 31 35 38 38 34 34
29 31 30 31 36 36 35 32 30 24 20 18 17 13 14 12 13 11 11 11 15 14 11 14 18 15 18 28 24 24 17 23 25 30 29 29 32 34 38 36 34 29 30
27 28 31 36 35 36 37 32 30 26 24 21 19 16 14 13 13 14 11 11 11 12 15 17 13 18 19 14 23 20 17 22 25 30 28 27 30 33 28 20 24 31 35
27 26 33 35 40 40 41 34 33 28 25 23 22 19 17 14 13 14 12 9 10 10 12 18 20 16 14 13 13 14 9 13 13 16 19 17 17 18 24 29 33 37 36
27 29 37 41 42 42 39 38 35 31 28 26 26 23 19 17 15 14 16 14 12 12 12 13 21 24 23 20 20 17 15 21 22 23 25 26 27 28 31 34 35 37 37
27 35 38 43 45 41 40 42 37 34 30 29 28 26 23 21 18 18 19 19 17 16 15 15 16 17 17 20 22 20 22 24 25 25 26 27 28 28 31 34 35 36 37
32 36 37 49 48 45 45 40 38 36 33 32 30 29 27 24 23 22 23 25 24 22 20 20 20 19 20 23 21 23 24 25 26 27 26 27 29 30 32 35 37 39 41
26 25 47 53 49 48 47 41 40 41 38 37 35 33 30 27 26 26 24 27 28 27 25 25 25 24 24 25 25 26 27 29 30 31 32 33 34 34 35 37 38 40 40
24 17 28 49 47 47 45 42 41 44 45 41 39 39 35 32 31 30 29 28 29 30 31 31 29 28 27 28 29 31 32 33 34 35 36 36 35 36 36 37 38 39 40
28 19 15 20 42 51 44 44 41 37 37 42 45 43 39 35 34 37 35 33 33 33 31 31 32 33 34 35 35 35 35 35 34 34 34 34 33 34 34 35 35 37 39
35 29 25 22 29 49 57 43 38 41 28 41 31 36 31 29 29 30 34 36 34 33 33 33 34 33 33 33 34 35 34 34 34 34 34 35 35 34 37 40 42 43 46
23 20 19 23 20 25 38 38 47 33 34 31 40 36 24 28 30 29 36 38 34 36 36 35 35 35 34 34 35 37 38 37 38 39 40 40 42 44 45 44 46 47 51
16 17 15 22 20 21 21 41 37 36 36 39 33 34 33 35 33 31 31 32 32 40 38 38 39 38 39 39 38 40 42 43 44 45 45 48 50 50 47 49 49 55 57
18 16 17 17 23 25 25 24 28 30 33 31 34 37 39 39 38 38 39 39 42 36 39 50 44 44 46 45 43 45 51 50 51 52 53 52 55 55 54 59 55 62 64
18 16 16 15 18 21 24 26 28 29 33 35 34 36 40 41 42 44 44 44 44 43 46 43 40 47 59 54 49 54 59 55 54 56 56 51 55 62 60 66 64 73 66
21 19 18 19 19 21 24 24 25 27 29 31 32 35 37 39 40 42 44 47 46 44 46 50 49 50 50 49 51 52 45 59 51 57 56 56 66 54 55 49 53 54 58
23 25 26 28 28 27 28 30 31 32 34 36 37 37 38 40 43 45 47 49 48 49 50 51 53 54 57 56 55 56 58 55 59 57 56 53 49 54 56 58 63 60 61
24 25 25 25 25 26 27 30 33 36 38 41 44 45 45 46 48 50 52 54 55 56 58 57 62 57 62 54 52 57 51 49 58 52 57 59 57 63 60 59 60 59 59

GFSMW_500_spd_111.txt.gz
Wind_Speed
43 42 39 33 30 26 27 27 26 27 30 30 27 27 24 20 20 23 24 20 21 23 24 29 32 33 40 37 37 40 40 36 33 31 38 34 32 30 27 25 26 26 26
42 44 42 35 35 27 26 29 30 31 33 35 29 28 24 19 20 23 22 21 19 24 19 37 42 43 37 40 42 44 44 38 36 35 38 35 34 32 30 30 30 30 30
43 44 41 37 35 29 26 28 30 31 35 34 30 28 24 20 19 21 21 21 21 24 18 16 37 43 42 41 44 45 45 39 36 39 40 38 36 34 32 34 35 34 33
42 40 40 37 35 33 29 28 29 32 35 34 30 28 23 19 18 18 20 21 21 23 20 19 28 45 46 45 48 45 45 40 36 35 37 36 37 37 36 38 36 36 37
37 39 39 37 37 34 30 32 28 31 31 35 30 29 23 18 18 17 18 20 18 18 19 20 29 39 46 47 47 48 45 41 41 38 38 40 41 40 39 36 35 33 30
44 42 40 38 36 33 32 31 28 30 32 31 30 29 25 19 18 16 17 20 17 16 15 20 28 36 47 50 50 45 45 41 38 39 41 43 41 37 38 38 33 28 27
43 40 41 37 36 37 37 36 32 32 34 29 30 30 25 21 18 15 15 16 14 14 13 21 24 34 51 49 39 41 41 40 39 38 42 41 39 39 36 31 30 27 30
41 40 40 37 36 35 40 37 34 36 36 31 31 29 23 19 18 13 12 12 11 12 19 20 30 34 52 47 41 38 40 38 40 42 44 40 33 29 31 30 27 27 32
40 40 39 36 31 35 37 35 35 37 36 32 30 28 21 15 18 14 11 9 10 10 9 12 33 34 48 31 22 27 27 37 39 36 38 35 35 26 25 29 24 28 30
34 38 37 31 30 35 35 37 35 38 35 31 32 27 21 16 16 17 13 8 7 10 7 7 22 30 18 22 26 29 24 20 23 32 32 34 30 29 25 28 25 30 33
30 33 33 30 32 33 35 37 35 38 31 33 32 27 23 18 17 16 16 11 7 7 6 6 7 22 20 22 25 29 35 29 23 22 26 28 26 26 25 26 25 31 29
33 31 33 32 38 35 36 38 40 39 32 35 32 28 25 22 18 14 16 15 10 10 11 13 9 13 17 23 17 16 22 28 22 24 26 24 24 23 16 12 13 18 21
32 29 34 33 38 34 40 45 43 39 34 35 32 29 25 24 19 16 13 15 13 11 12 12 19 20 18 14 17 15 15 21 18 16 14 13 13 18 20 19 20 27 32
33 31 35 36 34 31 38 45 44 38 36 35 32 30 28 25 22 19 14 13 15 12 11 11 11 16 21 20 18 19 20 22 24 23 22 22 21 24 26 28 32 33 33
32 34 34 34 34 30 40 43 44 39 37 37 35 33 29 26 25 23 20 15 17 17 15 14 14 15 17 18 19 20 22 24 23 22 23 22 24 25 26 29 31 33 33
22 24 32 31 29 29 44 48 46 41 40 41 38 36 31 28 28 27 25 22 19 22 22 21 20 19 19 21 23 24 25 28 26 25 25 26 28 28 30 31 33 35 36
27 23 25 23 26 43 47 49 45 42 40 40 40 39 36 34 31 30 27 25 24 23 25 26 26 27 27 28 28 28 29 27 26 27 28 29 30 33 34 35 37 38 39
27 31 31 24 26 38 50 52 47 44 41 37 40 39 38 40 34 32 29 28 28 28 28 28 28 29 31 32 31 31 32 32 32 33 34 35 36 35 35 35 36 37 38
28 28 32 27 20 28 42 47 45 44 42 41 43 40 33 34 39 38 33 32 33 35 33 32 34 33 33 33 34 35 36 36 35 36 37 37 37 35 35 36 37 37 39
28 31 32 26 27 24 28 50 50 48 46 47 41 32 26 27 27 26 27 29 31 28 30 33 36 36 36 35 35 36 36 37 38 39 41 41 42 41 41 41 41 43 45
17 20 21 23 24 20 22 37 44 61 49 45 52 38 38 42 41 37 31 34 34 30 33 32 34 36 39 41 41 40 40 41 41 42 43 44 45 47 47 47 47 49 50
15 14 11 16 18 19 20 16 26 32 50 46 29 33 37 35 34 35 28 30 33 34 32 34 32 32 39 44 46 45 47 46 47 46 43 48 53 53 55 55 54 56 55
11 10 11 11 9 11 14 17 16 19 26 27 31 31 30 31 31 29 32 33 36 38 40 41 43 42 42 44 47 54 55 56 52 57 54 45 56 55 57 56 58 62 57
9 9 12 11 13 10 12 13 13 14 16 19 22 28 34 35 33 35 37 40 44 46 45 46 44 45 45 44 46 49 50 49 46 48 58 56 57 56 62 54 63 56 56
12 15 14 13 14 16 16 16 16 19 20 20 21 22 25 29 30 31 32 34 39 40 41 42 43 44 46 44 42 52 42 52 50 53 50 55 58 54 57 55 58 62 56
15 15 15 16 16 17 19 20 23 25 25 28 29 30 34 36 36 38 40 41 42 44 45 47 48 48 48 45 51 54 47 52 49 50 52 49 54 55 60 53 58 55 55

GFSMW_500_spd_114.txt.gz
Wind_Speed
46 44 46 44 41 35 36 34 32 28 25 25 29 29 32 31 28 25 25 26 23 22 23 26 27 29 29 34 35 38 44 40 40 39 37 34 32 31 35 35 30 30 29
48 47 47 44 41 38 34 35 36 31 26 28 30 30 32 30 29 27 26 26 23 21 25 21 26 32 31 36 35 39 39 41 37 37 35 33 30 32 38 33 32 31 32
47 46 46 45 41 39 35 36 38 36 31 31 29 31 32 31 29 27 26 27 23 21 25 25 28 36 42 35 37 42 43 40 41 39 34 33 30 38 38 36 35 35 36
43 43 44 46 43 40 38 37 39 39 37 34 31 32 32 30 29 27 26 27 24 21 22 23 24 19 38 44 37 36 42 43 41 42 37 34 37 41 41 40 41 39 36
41 41 43 45 42 38 37 36 40 42 40 36 32 33 33 31 30 28 26 28 24 21 20 20 27 25 28 48 48 41 41 44 46 46 40 39 41 44 44 42 41 39 40
39 39 41 40 38 36 37 37 40 42 43 37 35 35 33 31 31 30 28 27 25 21 20 21 28 40 32 46 46 44 43 42 46 47 44 42 46 45 44 43 45 44 43
40 40 42 41 38 37 40 37 41 42 44 37 38 37 34 31 32 31 30 27 24 21 22 20 25 30 37 43 51 45 44 42 44 45 45 41 44 44 44 44 44 42 37
40 42 44 44 39 39 39 37 41 42 44 39 42 40 33 30 32 31 28 25 20 20 21 20 20 26 31 36 45 42 40 43 47 51 50 44 43 43 45 45 43 40 38
37 38 39 40 38 39 39 37 40 44 46 44 43 40 33 30 31 27 23 21 18 20 20 19 19 24 27 37 44 46 35 43 54 48 48 42 38 41 45 44 43 37 28
35 36 36 38 37 38 39 37 39 45 47 46 41 37 34 29 29 25 17 20 18 19 17 24 21 27 28 34 47 45 46 43 46 41 40 36 32 38 39 42 29 24 26
37 37 35 36 38 36 36 35 41 45 47 41 41 35 32 29 27 24 15 17 17 14 17 17 8 14 30 35 49 43 35 39 34 36 26 20 32 39 45 40 30 28 25
33 31 31 32 36 33 34 37 42 45 44 42 40 33 30 29 26 24 16 16 16 14 14 14 8 5 17 26 19 26 17 30 26 28 28 36 32 29 31 33 30 26 28
30 32 30 30 35 32 35 40 41 45 44 46 40 35 30 30 27 24 17 16 16 15 15 12 11 13 8 16 23 18 14 21 24 29 27 29 25 22 24 25 22 22 22
33 34 31 28 35 35 36 40 42 42 46 46 40 34 30 30 27 26 18 17 12 16 16 15 16 18 16 15 12 14 17 16 18 25 30 27 25 22 23 22 25 26 25
34 35 36 30 33 37 37 34 39 44 46 47 41 35 31 30 28 27 21 20 13 13 17 16 16 17 22 22 21 20 23 21 21 25 30 30 29 29 27 28 29 30 31
29 33 36 32 31 33 38 36 37 34 43 46 41 36 33 32 31 28 25 22 19 14 13 17 15 14 15 20 22 22 24 26 27 27 28 27 29 29 29 30 29 29 31
27 30 32 31 30 33 32 35 36 37 38 46 43 39 37 35 33 29 26 24 22 19 18 15 16 17 17 17 19 21 23 24 25 25 26 27 29 29 29 29 31 34 37
29 32 30 29 24 26 26 29 34 49 49 44 42 41 38 36 36 32 29 26 24 23 22 20 19 19 20 21 23 24 26 27 26 28 29 31 31 33 34 36 38 40 40
28 29 28 32 29 29 29 31 47 41 51 43 43 40 35 31 33 32 31 34 32 28 26 25 26 25 25 25 26 27 26 27 29 31 32 34 35 37 37 38 40 40 41
26 27 26 29 30 33 35 41 33 53 48 49 44 41 36 37 32 31 25 29 37 32 31 30 28 30 32 34 33 31 31 32 33 33 35 35 36 37 39 39 40 41 43
20 18 20 23 29 27 35 30 39 43 58 53 47 44 38 38 34 39 28 26 21 26 31 32 29 28 31 30 31 31 32 34 35 36 38 39 41 42 43 43 44 45 48
16 18 19 20 20 20 22 23 27 32 30 55 53 48 42 37 39 33 29 33 31 33 36 34 31 30 31 31 36 37 39 39 40 42 44 46 46 48 49 48 46 47 47
17 16 15 14 14 15 19 17 22 20 35 36 44 46 54 48 55 52 49 49 42 34 31 31 31 33 34 34 37 41 43 43 42 44 46 51 53 50 48 51 52 55 61
13 13 14 13 13 11 11 11 15 20 19 20 31 32 45 40 40 40 36 35 35 36 35 34 35 36 40 42 44 43 41 42 48 47 48 47 49 52 46 50 55 62 57
9 11 13 12 10 12 15 13 13 12 14 15 15 21 28 34 30 27 28 30 30 31 33 35 35 36 39 39 41 41 42 43 49 47 54 55 49 53 52 55 60 61 62
13 14 13 15 18 17 14 16 16 17 19 20 20 20 19 21 21 23 26 29 30 31 33 35 36 38 39 40 42 40 45 48 53 49 54 56 57 62 58 61 64 62 64

GFSMW_500_spd_117.txt.gz
Wind_Speed
49 48 46 47 44 42 36 35 34 34 34 34 31 30 32 28 25 24 26 28 26 27 26 28 27 25 31 29 31 31 31 35 37 36 39 43 39 34 32 31 31 31 31
50 47 48 48 44 42 38 36 35 35 33 33 32 32 35 31 28 25 25 28 28 29 27 28 29 26 27 33 35 35 37 32 35 39 42 41 37 31 30 30 31 32 34
50 49 48 46 43 43 40 38 35 34 32 33 33 35 36 33 30 25 25 28 29 32 28 28 30 27 28 29 34 38 38 31 36 39 40 39 36 38 34 32 33 34 36
51 48 46 44 45 42 41 39 37 36 33 35 34 38 36 36 32 27 27 29 29 31 29 28 29 28 27 30 31 39 40 36 36 42 39 39 39 40 36 36 33 37 39
51 49 46 46 44 43 41 39 39 36 33 36 36 38 37 40 35 32 29 29 30 31 31 28 29 28 27 33 30 40 42 39 39 39 41 41 39 36 36 36 37 42 42
47 47 46 44 44 45 41 42 39 37 34 36 37 38 40 43 39 34 31 30 31 32 31 30 31 30 31 33 30 39 46 44 42 44 45 42 40 42 40 37 41 45 46
44 45 43 43 43 43 41 38 38 36 36 36 39 38 41 43 41 36 33 30 31 32 32 31 31 32 34 34 38 35 48 47 39 37 39 43 46 49 45 42 43 46 47
39 42 45 45 43 43 40 37 35 35 38 39 40 40 41 43 41 39 34 31 31 31 30 31 30 33 37 35 33 41 47 48 40 41 40 41 46 50 45 43 45 42 45
35 42 41 44 44 43 42 40 38 35 36 37 38 41 42 44 41 40 35 31 29 30 27 28 30 32 34 32 33 36 48 51 46 43 38 41 46 47 40 39 37 37 43
36 37 41 43 45 44 41 41 39 38 37 36 38 43 44 45 42 40 32 30 28 27 25 24 28 28 30 39 33 38 51 51 46 44 44 46 46 45 45 37 38 38 43
37 40 40 40 42 43 40 39 38 37 36 35 39 45 47 46 42 37 30 28 28 24 21 23 24 26 34 30 29 36 37 42 45 44 39 43 48 42 39 32 35 40 39
34 38 39 40 38 38 37 36 36 36 34 35 40 47 48 43 41 35 28 26 26 22 17 21 20 26 20 27 27 31 36 46 43 40 38 41 33 29 31 28 34 40 45
30 33 35 36 33 34 34 33 34 34 33 37 42 47 45 43 39 33 26 25 25 19 16 21 18 21 10 13 19 25 35 30 31 34 31 23 36 28 28 33 33 35 36
29 33 33 32 30 30 32 31 32 32 33 38 40 44 43 43 39 30 26 25 24 18 15 19 19 19 16 8 17 18 23 24 21 29 29 30 28 33 31 31 27 31 30
31 32 32 33 31 27 29 30 31 32 35 36 39 40 44 45 42 30 29 26 24 18 13 17 18 17 18 15 12 12 20 16 12 17 19 19 28 32 31 30 29 29 30
32 32 32 33 32 29 28 30 30 34 36 37 37 40 43 44 43 32 29 27 25 20 14 14 17 16 15 16 18 16 15 15 17 19 19 21 26 27 31 34 34 35 37
24 28 31 32 33 32 28 28 32 34 36 35 36 38 40 45 44 34 31 28 25 23 17 15 16 19 16 14 15 19 18 19 19 23 24 24 25 29 31 33 34 35 36
25 25 27 30 35 33 29 28 30 31 32 35 38 38 37 40 44 35 31 29 26 24 21 19 18 18 18 18 18 18 19 19 19 23 24 25 26 28 31 33 35 37 38
24 25 27 29 32 34 30 28 27 30 38 34 41 41 42 42 43 38 34 32 29 30 25 24 23 21 20 18 19 20 21 23 25 27 28 30 31 32 34 36 39 41 42
25 26 29 27 29 26 29 29 30 32 36 43 55 52 44 40 41 36 31 25 31 40 37 29 27 26 24 25 25 26 25 25 25 26 28 30 31 33 35 37 39 39 39
23 23 24 24 27 28 26 30 33 36 39 39 36 38 39 41 41 37 32 29 26 20 27 28 32 28 29 28 26 25 26 27 29 30 29 30 31 32 34 37 40 41 42
25 25 24 24 23 24 26 29 30 36 39 37 38 55 59 58 42 41 36 32 27 28 25 23 22 28 30 31 28 25 26 29 32 34 35 35 35 37 40 42 44 47 51
19 17 18 20 21 22 22 24 28 31 27 35 37 41 53 52 49 44 37 32 33 31 29 30 29 32 35 33 33 31 30 31 33 35 36 37 38 43 42 42 46 47 47
16 15 18 20 22 20 21 21 22 25 25 26 27 33 37 48 50 47 41 40 39 39 37 39 40 29 45 32 35 34 35 36 38 38 39 40 42 49 44 45 44 51 52
16 18 18 20 18 17 19 18 17 16 16 24 23 24 28 33 35 53 57 56 53 48 48 46 38 40 42 37 36 36 38 40 40 43 42 45 46 45 50 48 51 54 57
12 12 13 15 19 19 17 18 19 17 17 14 17 16 16 22 31 27 29 39 41 41 39 34 31 35 35 34 33 35 37 45 42 46 41 55 51 46 53 54 54 57 58